Location: ????? ???
(29.9929°N, 31.2125°E)
Time: 06:02:30
(UTC+00:00)

Daily predictions for brighter satellites

Satellite Brightness Start Highest point End
(mag) Time Altitude Azimuth Time Altitude Azimuth Time Altitude Azimuth
Cosmos 292 Rocket 3.8 17:13:33 10° S 17:18:14 60° ESE 17:22:56 10° NNE
ADEOS 4.5 17:15:54 10° SE 17:20:24 31° ENE 17:24:54 10° N
Resurs 01 Rocket 1.6 17:20:00 10° SSE 17:24:22 79° ENE 17:28:47 10° N
Cosmos 1656 Rocket 3.9 17:20:03 10° S 17:25:22 48° ESE 17:30:39 10° NNE
CSL-04 Rocket 4.3 17:23:27 10° SE 17:28:23 39° ENE 17:33:24 10° N
Cosmos 1606 4.2 17:27:10 10° NE 17:28:37 13° ENE 17:30:04 10° ESE
USA 186 3.2 17:28:20 10° ESE 17:30:07 16° ENE 17:31:53 10° NNE
ATLAS 3B R/B 4.3 17:23:31 10° NW 17:30:20 36° WSW 17:36:46 10° S
YAOGAN 11 4.3 17:26:41 10° N 17:31:03 76° WNW 17:35:20 10° SSW
CZ-4B R/B 4.1 17:29:55 10° SE 17:34:29 29° ENE 17:39:07 10° N
Cosmos 1908 Rocket 3.5 17:30:46 10° N 17:35:12 79° E 17:39:37 10° S
Cosmos 1814 Rocket 4.0 17:30:40 10° NNW 17:35:57 86° ENE 17:41:07 10° SSE
Okean O Rocket 3.4 17:37:53 10° ESE 17:40:21 15° ENE 17:42:49 10° NE
Hubble Space Telescope 2.4 17:39:04 10° S 17:41:04 14° SSE 17:42:14 12° SE
Meteor 1-24 Rocket 4.1 17:35:44 10° SSW 17:41:21 69° W 17:46:47 10° N
SL-08 R/B 3.3 17:38:22 10° NNE 17:43:01 89° W 17:47:43 10° SSW
OAO 2 Rocket 4.4 17:43:24 10° SSW 17:47:13 22° SSE 17:50:14 13° ESE
IUS-18 SRM-1 4.0 17:37:13 10° W 17:48:38 45° SSW 17:51:26 15° SE
TRACE 3.3 17:47:35 10° NNE 17:49:10 32° E 17:49:22 30° ESE
Cosmos 2082 Rocket 2.4 17:43:59 10° N 17:49:36 56° ENE 17:54:35 13° SE
BREEZE M DEB (TANK) 4.4 17:36:18 10° SW 17:51:40 64° SE 17:55:56 10° ENE
Cosmos 1328 4.2 17:49:28 10° SSW 17:53:02 59° W 17:56:39 10° N
CZ-4 R/B 1.1 17:49:34 10° S 17:53:14 85° W 17:56:56 10° NNW
Cosmos 2369 Rocket 2.5 17:48:10 10° S 17:53:33 45° ESE 17:58:56 10° NNE
Centaur AC-119 4.0 17:55:05 10° SW 17:56:31 13° S 17:57:41 12° SSE
CZ-2C R/B 2.4 17:56:50 10° S 18:00:02 73° WSW 18:03:15 10° NNW
Cosmos 1461 3.6 18:01:02 10° NW 18:04:55 46° WSW 18:08:20 12° S
Transit 2A Rocket 4.4 18:03:27 10° SSW 18:07:43 86° ESE 18:12:04 10° NNE
DELTA 2 R/B (1) 3.7 18:02:16 10° WSW 18:07:47 75° NNW 18:13:19 10° ENE
CZ-4C R/B 2.2 18:07:40 22° SE 18:09:01 28° ESE 18:12:45 10° NE
Timation 1 Rocket 4.3 18:05:37 10° NNW 18:11:37 87° WSW 18:16:29 16° SSE
PAYLOAD B 4.3 18:07:34 10° SSE 18:13:06 84° WSW 18:18:38 10° NNW
Cosmos 2263 4.3 18:09:06 10° S 18:14:34 50° ESE 18:20:00 10° NNE
CZ-4B R/B 3.7 18:14:25 22° SE 18:17:41 56° ENE 18:22:46 10° N
CZ-4B R/B 2.8 18:18:53 35° SE 18:19:56 49° ENE 18:23:27 10° N
Cosmos 1777 Rocket 3.9 18:16:19 10° SSW 18:21:32 85° ESE 18:26:44 10° NNE
GP-B 4.2 18:17:31 10° NNW 18:21:41 44° W 18:25:50 10° SSW
Delta 7925 Rocket 3.9 18:17:49 10° SW 18:22:03 34° SSE 18:23:18 30° SE
MetOp-B 4.2 18:19:18 23° SSE 18:22:33 61° ENE 18:27:49 10° N
Cosmos 1340 Rocket 3.3 18:23:56 10° NNE 18:27:29 36° E 18:27:46 35° E
Cosmos 44 3.1 18:24:00 13° S 18:27:35 50° ESE 18:31:45 10° NE
Tiangong -0.8 18:26:58 10° W 18:30:04 42° NNW 18:33:09 10° NE
Cosmos 2242 Rocket 4.2 18:27:54 10° SSW 18:32:09 54° W 18:36:27 10° N
Helios 1B rocket 2.1 18:37:17 56° ESE 18:37:46 64° ENE 18:41:25 10° N
Cosmos 2221 Rocket 4.1 18:38:01 38° E 18:38:10 38° E 18:42:21 10° NNE
Terra 1.8 18:40:15 43° SE 18:41:34 61° ENE 18:46:12 10° N
Meteor PRIRODA 3.7 18:42:52 47° N 18:42:52 47° N 18:45:00 10° N
IRS-1A Rocket 4.3 18:43:19 39° SE 18:45:15 61° ENE 18:50:41 10° N
Helios 1A 2.8 18:42:57 10° N 18:46:53 79° WNW 18:48:23 36° SSW
Cosmos 1570 Rocket 4.1 18:41:48 10° NNW 18:47:03 73° WSW 18:49:21 34° S
Spot 2 Rocket 3.9 18:47:09 40° ESE 18:48:02 44° ENE 18:52:50 10° N
Cosmos 1634 Rocket 4.0 18:42:42 10° N 18:48:52 83° W 18:52:28 27° S
SPOT 5 4.2 18:49:40 15° SSW 18:53:37 39° W 18:58:33 10° NNW
Cosmos 1674 Rocket 3.6 18:55:31 45° SSW 18:56:49 79° W 19:01:15 10° N
ERS-1 Rocket 3.0 18:57:48 41° S 18:59:30 72° WSW 19:04:29 10° NNW
Sich 1 Rocket 4.5 18:56:49 10° NNE 19:00:23 36° ENE 19:00:23 36° ENE
Meteor 1-21 Rocket 4.5 18:56:38 17° SSW 19:01:06 67° W 19:06:41 10° N
USA 245 3.7 19:02:47 58° ENE 19:02:47 58° ENE 19:06:26 10° N
Meteor 1-11 4.2 19:03:39 49° SSE 19:05:12 72° E 19:11:00 10° NNE
Cosmos 2279 Rocket 3.9 18:59:33 10° N 19:05:49 90° NE 19:08:02 44° S
Meteor 2-12 Rocket 4.3 19:05:25 37° S 19:08:03 89° E 19:14:13 10° N
Okean-O 2.9 19:08:45 54° SW 19:09:20 60° W 19:13:40 10° NNW
Cosmos 1900 4.2 19:11:30 68° SSW 19:12:08 87° ESE 19:17:11 10° NNE
Cosmos 990 Rocket 4.2 19:11:54 31° SSW 19:14:19 67° WNW 19:19:29 10° N
Okean O Rocket 2.8 19:15:07 30° SW 19:16:10 34° W 19:20:10 10° NNW
COSMOS 2406 4.3 19:12:07 10° NW 19:17:23 39° WSW 19:19:30 29° SSW
Cosmos 1025 Rocket 3.2 19:17:50 71° NW 19:17:50 71° NW 19:21:56 10° N
OAO 3 Copernicus 4.4 19:17:15 10° W 19:22:14 71° NNW 19:22:46 65° NNE
Aureole 1 Rocket 3.9 19:22:56 63° ESE 19:23:09 63° ESE 19:30:07 10° NNE
OAO 2 Rocket 4.5 19:26:31 10° WSW 19:29:06 31° WSW 19:29:06 31° WSW
Yuri Rocket 4.4 19:28:06 10° WSW 19:37:23 61° SSE 19:37:25 61° SSE
Centaur D-1A AC-32 3.4 19:35:02 10° W 19:50:03 59° SSW 19:50:03 59° SSW
Ariane Rocket 3.5 19:52:52 58° NW 19:52:52 58° NW 19:56:59 10° NNW
ASTEX 1 4.5 19:48:10 10° NNW 19:52:39 38° W 19:52:49 38° W
CZ-4C R/B 4.3 19:54:28 10° W 19:57:15 17° NW 20:00:24 10° N
Cosmos 1627 Rocket 4.5 19:57:55 75° N 19:57:55 75° N 20:03:28 10° N
NOSS 3-4 (A) 4.5 20:26:02 10° NW 20:33:06 50° WSW 20:33:06 50° WSW
NOSS 3-4 (C) 4.5 20:26:05 10° NW 20:33:06 51° WSW 20:33:06 51° WSW
Cosmos 2297 Rocket 4.0 21:36:56 10° NNW 21:39:27 27° NNW 21:39:27 27° NNW
Cosmos 1980 Rocket 4.3 21:46:40 21° NNE 21:46:40 21° NNE 21:48:27 10° NNE
Cosmos 2227 Rocket 4.0 22:09:47 10° NNW 22:12:20 27° N 22:12:20 27° N
Cosmos 2322 Rocket 4.5 22:46:23 16° ENE 22:46:23 16° ENE 22:48:03 10° NE
USA 215 3.8 22:58:07 52° N 22:58:07 52° N 23:03:08 10° NW
ATLAS 2AS CENTAUR R/B 3.5 22:50:58 10° NNW 22:57:03 44° NE 22:57:03 44° NE
Cosmos 2263 Rocket 3.9 22:57:13 10° NNW 22:59:46 28° NNW 22:59:46 28° NNW
SL-16 R/B 3.4 23:17:31 38° NNE 23:17:31 38° NNE 23:20:54 10° NNE
Cosmos 2333 Rocket 3.5 23:21:45 36° NE 23:21:45 36° NE 23:25:16 10° NNE
CZ-2C R/B 4.4 23:36:52 25° NW 23:36:52 25° NW 23:39:15 10° NNW
Resurs 1-4 Rocket 3.3 23:38:00 10° NNE 23:41:53 36° ENE 23:41:53 36° ENE
CENTAUR R/B 3.1 23:49:44 44° NNW 23:49:44 44° NNW 23:54:29 10° NNE
IDEFIX/ARIANE 42P 3.8 23:48:03 10° N 23:51:12 36° NNW 23:51:12 36° NNW
ALOS 4.1 23:50:03 10° NE 23:52:55 25° ENE 23:52:55 25° ENE
